Location: South Range
(44.4886°N, 65.7879°W)
Time: 14:48:30
(UTC-04:00)

Iridium 56 - Visible Passes

Search period start: 08 February 2016 00:00
Search period end: 18 February 2016 00:00
Orbit: 776 x 779 km, 86.4° (Epoch: 08 February)

Date Brightness Start Highest point End Pass type
(mag) Time Alt. Az. Time Alt. Az. Time Alt. Az.
08 Feb 8.0 04:08:27 13° NNE 04:08:27 13° NNE 04:09:05 10° NNE visible
08 Feb 7.7 05:48:56 11° NNW 05:48:56 11° NNW 05:49:05 10° NNW visible
09 Feb 7.7 05:15:43 12° NNW 05:15:43 12° NNW 05:16:09 10° NNW visible
10 Feb 7.9 04:42:27 12° N 04:42:27 12° N 04:42:51 10° N visible
11 Feb 8.2 04:09:10 11° N 04:09:10 11° N 04:09:19 10° N visible
